Regional Weather Roundup
Issued by NWS Jackson, KY

Home | Current Version | Previous Version | Graphics & Text | Print | Product List | Glossary On
Versions: 1 2 3 4 5 6 7 8 9 10 11 12 13 14 15 16 17 18 19 20 21 22 23 24 25 26 27 28 29 30 31 32 33 34 35 36 37 38 39 40 41 42 43 44 45 46 47 48 49 50
699
ASUS43 KJKL 120210
RWRJKL

EAST KENTUCKY HOURLY WEATHER ROUNDUP
NATIONAL WEATHER SERVICE JACKSON KY
900 PM EST MON DEC 11 2017

NOTE: "FAIR" INDICATES FEW OR NO CLOUDS BELOW 12,000 FEET WITH
NO SIGNIFICANT WEATHER AND/OR OBSTRUCTIONS TO VISIBILITY.

* THESE REPORTS ARE NOT UNDER NWS QUALITY CONTROL AND MAY NOT
  REPORT WEATHER SUCH AS PRECIPITATION AND FOG.

KYZ079-080-083-085-087-088-110-112-115-119-120-120300
...EASTERN KENTUCKY...

CITY           SKY/WX    TMP DP  RH WIND       PRES   REMARKS
JACKSON        PTCLDY    48  29  47 VRB5      29.77S
LONDON         MOCLDY    46  29  51 S5        29.81S
SOMERSET*      CLOUDY    50  28  43 W13G18    29.82F
MONTICELLO*    MOCLDY    53  31  42 SW20G26   29.83F
WILLIAMSBURG*  MOCLDY    50  30  46 SW9       29.82F
MIDDLESBORO*   PTCLDY    50  32  49 S5G22     29.86R
HARLAN APT*    CLOUDY    45  28  53 CALM      29.84S
PIKE CO APT*     N/A     48  28  46 S5        29.78R
BIG SANDY APT* PTCLDY    49  28  44 SW6       29.78R
MOREHEAD APT*  PTCLDY    46  27  46 S7        29.74F
$$

KYZ035-036-041-042-044-050-067-078-099-120300
...CENTRAL KENTUCKY...

CITY           SKY/WX    TMP DP  RH WIND       PRES   REMARKS
MT STERLING*   CLOUDY    48  32  53 SW15G21   29.75F
FLEMING/MASON* MOCLDY    42  29  61 SW10      29.72F
DANVILLE*      CLOUDY    48  30  49 SW12G20   29.77F
LEXINGTON      CLOUDY    47  30  51 S13       29.73F
FRANKFORT      CLOUDY    48  29  47 SW14      29.72F
LOUISVILLE     PTCLDY    51  26  37 W20G33    29.78R
LEBANON*         N/A     48  32  53 SW13G20   29.77S
GLASGOW*       PTCLDY    51  31  45 SW9       29.80S
BOWLING GREEN  CLEAR     51  31  46 SW8       29.82R
$$

KYZ091>093-OHZ055-061-077-WVZ005-015-034-035-042-120300
...SOUTHERN OHIO/WEST VIRGINIA...

CITY           SKY/WX    TMP DP  RH WIND       PRES   REMARKS
COVINGTON      PTCLDY    46  31  55 SW16      29.69R
COLUMBUS       CLOUDY    37  26  64 SE9       29.68F WCI  30
DAYTON         CLOUDY    36  30  79 S9        29.66F WCI  29
WILMINGTON     CLEAR     33  28  81 SE7       29.66F WCI  27
HUNTINGTON     CLOUDY    48  25  40 SW9       29.73F
CHARLESTON     CLOUDY    40  26  57 CALM      29.75S
PINEVILLE*       N/A     34  30  85 MISG      29.85F
BECKLEY        MOCLDY    44  23  43 S13       29.78F
BLUEFIELD      CLEAR     42  23  46 SW8       29.81F
LOGAN CO APT*    N/A     46  27  46 VRB5      29.78R
$$

VAZ002-007-008-TNZ017-027-036-066-071-120300
...SOUTHWEST VIRGINIA/EAST TENNESSEE...

CITY           SKY/WX    TMP DP  RH WIND       PRES   REMARKS
WISE*          CLOUDY    45  30  57 SW20      29.83S
JONESVILLE*      N/A     34  28  80 CALM      29.89F
ABINGDON*      CLEAR     35  28  76 CALM      29.86F
BRISTOL        CLEAR     33  28  81 CALM      29.88S
MORRISTOWN*    CLEAR     41  30  65 S5        29.87F
SEVIERVILLE*   CLEAR     37  32  81 CALM      29.88F
KNOXVILLE      MOCLDY    50  33  52 SW16G25   29.87F
LAFOLLETTE*    CLEAR     45  32  61 VRB3      29.89R
OAK RIDGE      PTCLDY    47  33  58 CALM      29.91S
CROSSVILLE     CLEAR     47  28  47 SW6       29.89R
NASHVILLE      CLOUDY    55  30  38 SW10      29.86F
$$

...KEY TO REMARKS...
VSB - VISIBILITY IN MILES
WCI - WIND CHILL INDEX
HX  - HEAT INDEX

$$




USA.gov is the U.S. government's official web portal to all federal, state and local government web resources and services.